RH
4 4 4 4 4 5 5 5 5 5 6 6 6 5 5 5 5 5 5 5 5 4 4 4 4 4 4 4 4 4 4 5 7 6 5 5 4 5 5 7 11 14 11 16 31 40 41 44 49 48 44 40 39 42 39 38 42 44 45 45 46 49 54 60 63 56 48 48 52 58 63 67 64 61 65 68 66 59 59 65 64 64 70 73 67 60 63 70
5 4 4 4 4 4 5 5 5 5 5 5 6 5 5 5 5 5 5 5 5 4 4 4 4 4 4 4 4 4 4 8 11 8 7 6 5 5 5 6 7 10 8 15 31 39 40 44 47 45 43 40 38 38 37 36 38 41 44 44 46 51 56 61 58 49 45 47 52 57 65 72 70 65 64 68 69 61 61 64 59 61 68 67 61 57 63 69
5 5 5 5 4 4 4 5 5 5 5 5 5 5 5 5 5 5 5 4 4 4 4 4 4 4 4 4 4 4 7 12 12 8 8 7 6 5 5 5 6 9 8 15 31 37 41 44 45 44 43 40 35 33 33 35 38 41 44 45 49 54 56 57 53 47 43 45 54 60 65 73 77 73 67 68 69 65 65 63 56 60 64 60 56 58 64 68
7 6 6 6 5 5 5 4 4 4 5 5 5 5 5 5 5 4 4 4 4 4 4 4 4 4 4 4 4 5 9 15 15 9 8 8 7 6 5 5 5 9 9 15 28 36 41 42 43 44 41 36 32 31 31 34 40 42 44 47 51 54 55 53 48 46 42 46 57 62 65 70 76 78 73 71 68 67 69 65 59 57 54 50 51 57 64 68
9 8 7 7 7 6 6 5 4 4 4 4 4 5 5 5 5 4 4 4 4 4 4 4 4 4 4 4 5 5 11 20 17 9 11 12 10 7 5 5 5 7 8 13 24 34 40 40 40 43 40 32 29 31 29 34 42 43 44 48 53 54 55 50 44 46 43 48 60 63 68 69 73 79 77 72 67 70 74 71 64 54 47 47 51 57 62 66
11 10 9 8 8 7 7 6 5 5 4 4 4 4 4 4 4 4 4 4 4 4 3 4 3 4 4 4 5 4 10 19 15 11 14 14 13 10 5 5 5 6 7 11 21 30 37 37 38 41 35 27 26 29 28 34 42 45 47 49 52 52 52 47 41 46 45 48 60 64 70 72 73 79 76 69 65 70 76 75 66 51 45 48 55 61 62 64
13 12 10 9 9 8 8 7 7 6 5 5 4 4 4 4 4 4 4 4 3 3 3 3 3 3 4 4 4 4 7 12 11 11 14 13 14 13 7 5 4 5 6 10 18 27 34 35 36 39 32 25 26 31 32 35 41 47 49 49 49 48 49 45 39 46 47 46 58 64 69 74 78 82 78 69 66 72 77 77 68 52 44 48 59 66 64 64
14 13 12 10 9 9 9 8 8 7 6 6 5 5 4 4 3 3 3 3 3 3 3 3 3 3 3 4 4 4 5 7 9 10 13 13 14 13 8 5 4 5 6 9 17 24 30 32 35 36 28 26 29 36 39 37 43 49 47 47 47 46 45 43 40 46 49 45 55 64 67 74 80 84 81 72 69 75 77 76 72 54 43 49 64 71 66 66
14 13 13 12 10 9 9 9 9 8 8 7 7 6 5 5 4 3 3 3 3 3 3 3 3 3 3 4 4 5 4 6 8 9 12 12 12 11 8 5 4 6 8 11 16 20 26 32 37 32 25 29 34 40 44 43 46 44 38 42 47 45 40 38 39 44 49 45 52 65 67 72 80 82 81 73 70 75 76 75 70 51 42 52 67 72 68 67
15 14 13 13 11 10 9 9 9 9 9 8 8 7 7 6 5 5 4 3 3 3 3 3 4 4 4 4 4 5 6 7 8 8 10 10 10 9 7 5 4 8 13 14 18 24 31 37 38 30 24 31 39 43 46 45 41 35 34 38 43 44 39 38 39 43 49 46 50 64 67 71 79 79 79 73 71 75 75 74 67 49 44 55 66 72 69 68
16 15 13 13 12 11 10 10 9 9 9 9 9 8 8 7 7 7 6 5 5 5 5 5 5 5 5 5 5 5 6 7 6 7 9 9 10 9 8 5 4 10 17 21 27 32 37 40 34 27 23 29 41 46 45 43 36 34 36 34 37 42 38 39 39 41 49 48 50 62 65 70 75 76 78 74 71 76 77 75 71 55 48 57 66 70 69 69
17 16 14 13 13 12 11 10 10 9 9 9 9 8 8 8 8 8 8 7 7 7 6 6 6 7 6 6 6 6 6 6 6 7 7 8 10 10 9 6 4 8 18 26 33 35 38 39 31 25 22 24 36 42 41 39 33 31 33 33 37 39 36 39 40 41 49 51 51 58 62 65 68 72 77 75 71 75 78 77 76 66 54 60 68 67 69 69
17 17 16 14 14 13 12 11 10 10 9 9 9 9 9 8 8 8 8 8 7 7 7 7 7 8 8 7 7 7 7 8 7 7 7 8 10 10 10 8 4 6 17 28 32 35 37 36 29 24 22 22 27 32 31 30 28 27 28 31 34 34 34 38 39 40 46 52 52 53 58 58 61 69 75 74 71 72 77 77 76 75 64 63 69 67 68 68
16 17 16 15 14 14 14 12 11 10 10 10 9 9 9 8 8 8 8 7 7 8 7 8 8 9 10 8 8 9 9 9 9 8 8 10 10 10 10 8 5 5 16 28 30 34 36 31 26 23 22 22 24 25 24 25 26 25 25 27 29 30 32 34 36 38 44 53 53 49 51 53 58 66 69 70 70 69 74 76 76 79 72 66 72 72 68 66
15 15 16 16 15 15 15 14 13 11 10 10 10 9 9 9 9 8 8 8 7 8 8 9 9 10 11 10 10 9 10 11 11 10 9 11 11 10 9 7 6 4 13 27 30 33 34 30 25 22 22 23 22 22 23 23 24 24 25 26 27 28 30 31 34 37 42 50 53 51 48 49 52 57 64 67 67 68 72 77 77 79 76 69 73 76 71 70
14 14 15 15 15 15 15 16 15 13 11 10 10 9 9 9 9 9 8 8 8 8 8 9 10 11 11 11 11 10 12 14 14 13 13 14 12 11 10 7 6 5 10 24 32 32 31 28 24 21 21 22 22 22 22 22 23 24 25 26 26 27 28 30 30 32 36 39 45 51 48 47 49 51 61 66 68 70 72 77 78 78 76 73 75 77 76 75
13 13 14 14 14 14 15 16 16 15 13 12 11 10 9 9 9 9 8 7 8 8 8 9 10 10 11 11 11 12 14 15 16 17 19 18 15 15 13 7 6 6 8 21 30 31 29 27 23 20 21 22 22 22 22 23 24 24 25 25 26 27 26 26 26 27 29 29 35 46 46 48 51 48 54 66 72 74 73 76 78 77 75 74 77 76 75 76
12 12 12 13 13 13 14 15 16 16 14 13 13 11 10 9 9 8 8 8 9 8 8 10 11 12 14 12 12 14 16 16 16 18 19 18 17 19 16 8 7 7 9 18 25 28 28 26 22 20 20 21 22 22 23 24 25 25 26 26 26 25 25 24 23 24 25 24 28 40 43 46 53 49 49 61 74 80 78 76 78 78 76 76 78 75 72 73
13 12 11 12 12 12 13 13 15 16 15 15 14 13 11 10 10 9 9 9 10 10 10 12 14 15 16 14 13 16 18 17 18 20 20 19 19 21 17 10 8 7 10 16 22 25 26 24 22 18 16 18 20 21 23 23 24 25 25 25 25 24 23 21 21 22 23 23 26 36 40 44 52 50 48 55 68 82 86 83 80 79 78 78 79 75 70 71
14 15 13 11 11 12 12 12 14 15 16 16 15 14 13 13 13 12 11 10 10 10 9 11 12 14 17 16 16 17 18 18 19 22 23 21 21 22 20 15 12 9 10 15 19 21 21 20 18 14 11 13 16 20 22 22 23 23 23 24 25 25 21 18 20 20 20 24 28 35 41 43 48 49 50 53 57 68 79 83 84 80 78 77 76 75 71 72
16 17 16 13 11 11 11 12 12 14 15 16 16 16 15 16 15 13 12 10 11 11 9 9 9 11 16 16 16 18 18 18 20 22 23 21 21 22 21 19 17 14 11 13 16 16 15 13 10 9 9 11 14 19 21 21 22 22 23 24 24 23 19 17 19 18 20 28 32 36 40 41 44 48 51 53 53 55 62 71 79 80 78 74 71 71 70 74
16 19 18 15 11 10 11 12 12 13 14 15 16 17 17 17 16 14 12 10 13 13 10 9 8 10 15 15 16 18 17 18 20 22 21 20 19 20 21 19 17 19 17 15 16 15 12 7 5 8 9 11 14 18 19 20 22 22 24 25 23 20 17 16 17 17 20 27 34 37 39 39 43 48 50 52 52 52 56 64 71 76 76 74 69 65 65 71
15 19 20 17 13 10 11 12 12 12 13 15 16 17 17 17 16 15 13 10 13 15 11 10 9 10 13 15 15 16 16 18 20 21 20 20 21 21 22 20 17 19 22 19 17 16 14 9 9 11 11 12 14 16 18 19 21 23 22 22 19 16 16 15 15 17 16 21 32 39 38 37 41 45 46 50 50 49 54 61 68 74 76 77 73 65 62 66
13 17 19 18 16 13 12 12 12 11 13 16 17 18 17 17 17 16 16 13 13 15 13 10 11 11 11 12 13 14 15 18 19 21 22 23 24 22 21 22 19 18 20 19 17 15 14 14 14 13 13 14 14 15 16 17 18 19 17 17 16 14 15 14 14 16 15 17 28 40 42 35 33 38 40 46 50 48 50 54 61 69 75 78 77 72 66 67
11 14 16 17 16 14 13 12 11 12 14 17 18 19 19 18 18 17 17 16 16 19 16 12 12 12 11 12 13 14 16 18 19 21 23 23 24 23 21 21 19 18 17 16 16 14 14 15 15 15 15 14 15 15 15 15 15 14 14 13 13 12 13 14 13 15 17 20 27 42 54 42 29 33 39 43 47 46 46 47 51 59 68 73 75 74 72 72
10 11 12 14 15 14 14 13 12 13 15 19 19 19 20 20 19 19 19 18 20 21 18 16 14 13 14 14 15 16 16 18 20 22 24 25 26 25 24 22 18 17 17 17 17 15 14 15 15 15 15 15 15 14 14 15 15 13 12 12 12 13 13 13 13 15 20 28 35 44 55 49 32 29 36 40 44 46 45 44 45 52 60 65 68 71 71 73
10 10 10 11 12 12 13 13 13 13 16 20 20 20 21 20 20 20 19 21 23 21 19 19 17 15 15 16 16 17 17 19 21 22 23 26 26 25 25 24 19 16 16 17 17 14 13 14 15 15 15 15 14 13 14 16 15 13 11 11 11 11 11 12 14 18 23 33 43 46 49 53 42 28 30 35 38 44 43 40 41 44 50 58 64 69 70 71
10 10 9 9 9 10 12 14 13 14 19 20 20 21 21 20 22 20 20 26 26 20 20 21 19 17 17 16 17 18 19 20 20 20 22 25 26 24 23 22 20 19 19 19 17 15 15 14 14 15 15 15 13 13 15 15 14 13 12 12 10 10 12 12 17 24 31 38 44 42 45 57 49 27 27 33 33 38 38 35 37 37 41 48 56 64 69 72
9 10 9 7 7 8 11 14 13 16 20 20 20 22 21 22 22 20 22 27 25 21 22 21 20 20 19 18 18 18 19 20 20 20 21 24 25 23 24 23 23 24 24 23 20 17 16 16 16 16 15 14 12 13 15 14 15 14 13 13 11 12 9 13 26 36 43 45 39 34 39 52 47 26 25 31 30 33 33 32 34 35 37 40 45 54 61 67
10 10 8 6 6 8 12 14 14 18 21 21 21 21 22 23 22 23 28 29 24 23 22 22 22 21 20 19 18 17 19 19 19 20 20 22 23 22 23 24 24 24 24 24 21 16 15 15 16 15 14 13 12 13 14 14 15 13 14 13 10 14 17 27 42 46 51 51 37 30 33 44 47 31 23 28 28 30 31 30 31 32 36 36 37 43 49 54
9 8 7 7 7 10 14 15 16 20 21 21 22 22 22 22 21 24 30 29 24 23 22 22 22 20 20 20 19 18 18 18 19 20 20 21 22 22 21 21 22 22 22 22 18 15 14 13 14 13 12 13 12 13 13 13 14 13 13 12 11 21 32 41 47 45 54 54 36 29 33 48 54 33 22 27 29 29 28 26 27 29 32 33 34 38 41 45
9 9 8 8 10 13 15 16 18 21 22 21 21 22 22 23 24 26 29 27 24 24 23 22 21 19 20 20 19 19 18 19 19 19 19 20 20 20 20 20 21 21 21 21 18 17 15 12 13 12 11 13 12 12 12 12 13 12 12 10 12 25 36 49 56 50 52 50 34 29 36 49 47 27 20 26 27 30 29 26 28 29 33 36 37 38 40 42
11 12 12 11 13 16 16 17 21 21 21 21 21 22 22 24 28 29 30 29 26 25 24 21 19 18 19 19 19 19 19 19 20 20 20 20 20 19 19 20 21 22 23 22 21 21 17 12 11 11 11 11 11 12 12 11 11 11 11 9 12 24 34 49 60 50 40 36 29 31 42 44 33 22 22 24 26 29 29 29 31 32 38 41 40 41 42 43
14 14 15 16 16 17 17 18 21 21 21 21 21 22 23 24 28 31 32 31 26 24 22 19 18 18 19 19 18 18 18 18 19 20 19 19 19 18 19 19 20 22 23 23 23 23 22 16 10 10 11 10 11 11 11 11 11 11 12 9 10 17 21 29 40 36 28 30 34 40 46 40 28 24 23 23 26 28 27 31 34 34 39 41 41 42 43 45
17 17 17 19 18 18 18 19 21 21 21 21 21 23 24 26 31 34 34 31 27 24 21 19 19 18 18 18 18 18 18 18 17 18 18 18 19 18 19 20 20 21 22 24 24 22 21 17 11 11 12 11 11 11 12 12 12 12 12 11 10 12 12 14 21 21 20 31 44 47 38 26 22 23 23 24 27 27 28 30 32 35 38 39 39 41 43 46
20 18 19 20 20 19 19 21 21 20 21 22 22 24 28 31 35 37 35 32 30 27 23 21 20 20 20 21 20 19 20 19 17 18 18 18 19 20 21 20 20 21 22 23 24 22 21 18 15 15 15 13 13 12 13 13 12 12 11 11 11 10 11 12 13 17 21 27 33 34 27 19 20 21 21 24 26 25 29 30 31 36 38 39 41 41 43 46
22 19 21 21 20 20 20 21 22 21 23 23 23 28 33 35 36 37 35 33 32 30 26 23 23 24 24 24 22 21 21 19 18 18 17 19 24 24 23 22 23 25 24 23 24 23 23 20 15 16 17 15 13 12 12 12 12 13 11 11 10 10 12 11 12 18 24 27 27 26 26 23 22 23 21 21 23 24 27 29 31 34 37 40 42 43 45 47
22 20 22 22 21 21 21 22 23 23 24 24 26 33 37 37 37 37 34 32 32 30 27 25 26 26 26 25 24 23 22 21 20 19 16 20 28 29 29 28 29 31 28 25 25 23 23 21 14 14 17 16 13 12 12 11 12 12 11 11 10 11 12 10 13 15 18 33 41 31 28 24 20 20 19 19 22 22 25 28 29 32 36 39 42 43 45 48
22 24 23 22 22 22 21 22 22 22 23 25 30 36 39 38 38 37 35 34 32 30 29 29 29 29 28 27 27 25 25 25 25 23 18 18 25 29 31 31 31 32 30 27 26 24 24 24 17 14 15 16 14 13 12 11 11 11 11 12 10 11 12 10 14 13 13 34 46 35 31 26 15 14 17 18 21 23 24 26 27 31 36 39 41 40 41 45
24 28 25 23 24 23 24 24 24 25 26 29 35 39 39 39 39 38 37 36 34 32 32 31 30 31 30 29 29 27 27 29 28 26 22 20 24 30 32 30 28 29 30 29 26 23 24 25 21 15 14 16 16 15 15 12 12 11 10 12 10 10 12 10 13 12 11 31 49 46 39 24 10 13 16 16 20 24 24 25 28 33 37 41 41 37 38 43
26 28 27 28 29 28 29 32 32 33 32 34 38 39 39 39 39 40 39 37 36 36 36 34 32 32 31 31 31 30 29 31 30 29 29 27 29 33 34 32 30 28 29 30 26 24 24 23 21 17 15 15 14 15 16 15 13 12 10 11 11 10 11 11 15 15 10 20 36 40 35 19 9 13 15 15 20 23 24 26 30 35 39 42 41 37 37 41
22 24 24 29 34 33 33 36 37 37 36 37 38 38 39 39 39 40 40 38 37 37 37 37 35 34 33 33 32 31 31 31 31 31 34 35 33 34 36 36 35 32 31 31 29 28 28 24 22 20 17 16 15 15 16 15 15 13 11 11 11 11 11 11 16 16 12 15 22 28 28 17 9 12 13 15 20 21 23 26 31 37 40 40 38 36 36 40
16 20 21 26 33 34 34 36 39 40 39 39 39 39 39 39 38 40 40 39 38 37 36 37 37 36 36 35 34 34 33 33 34 33 36 39 39 37 37 37 37 35 33 32 32 31 29 26 24 22 18 16 15 14 14 14 14 13 12 11 11 12 12 13 14 12 13 18 20 28 30 17 8 11 13 15 18 19 21 23 29 36 37 34 33 34 36 38
12 19 22 21 24 29 31 35 38 38 38 39 40 40 39 38 38 38 39 39 39 39 38 37 38 38 38 38 36 36 36 35 37 37 36 37 39 39 38 37 37 37 35 34 35 34 30 28 26 24 22 20 17 16 15 14 15 14 14 12 13 14 13 13 13 11 13 15 17 27 30 16 9 12 13 15 17 18 20 22 27 32 30 28 29 32 35 36
13 17 20 16 16 22 26 32 36 35 34 35 36 36 35 34 36 36 37 38 39 39 39 39 40 39 40 41 39 39 39 37 38 40 38 36 38 39 39 38 37 36 36 37 38 37 33 28 28 29 30 30 28 28 26 21 18 17 16 14 13 14 14 13 13 12 12 13 14 20 19 11 10 12 13 15 16 16 20 22 24 25 24 25 28 30 33 36
14 15 16 14 14 17 21 25 29 30 32 32 32 32 30 30 32 32 33 36 38 40 40 41 42 41 41 41 40 39 39 38 39 40 39 37 37 38 38 38 37 36 35 35 36 37 35 30 30 32 34 36 35 34 32 27 22 19 17 16 15 14 14 14 13 13 12 12 13 14 13 11 12 12 13 15 15 16 19 20 21 20 19 21 24 27 31 36
16 15 14 13 15 17 19 22 25 27 29 30 30 30 29 29 30 29 29 32 37 40 42 42 43 43 43 42 41 40 38 38 39 39 39 38 36 36 37 38 38 37 35 34 33 35 35 34 33 33 32 33 33 33 32 30 28 23 17 16 16 15 15 14 14 14 13 13 13 12 12 12 11 11 13 14 14 16 19 20 20 18 17 18 20 24 28 31
19 17 15 14 16 17 18 20 23 24 26 28 29 30 31 31 31 30 30 32 34 38 41 43 43 42 42 41 40 40 39 38 38 37 38 37 36 37 37 37 38 38 36 35 34 33 34 35 34 34 32 31 30 31 32 31 29 24 18 16 16 16 15 15 14 14 14 15 15 14 14 13 11 12 13 14 14 17 19 19 20 18 16 15 17 20 24 25
20 19 18 17 16 16 14 15 16 17 22 26 29 31 32 32 32 33 34 35 35 35 36 36 36 35 34 34 32 31 32 32 33 33 33 33 32 32 33 34 36 37 37 35 35 35 35 35 35 35 33 30 29 30 30 30 28 22 17 16 16 15 16 16 15 15 14 15 16 17 16 14 13 13 14 15 16 18 19 19 18 18 15 13 14 17 21 23
21 21 20 20 19 17 16 17 16 17 22 27 31 34 33 33 34 34 33 32 30 28 26 25 25 24 23 22 20 20 21 21 22 22 21 22 23 25 28 29 31 34 34 33 34 37 39 39 37 36 33 29 28 29 28 29 29 24 20 17 16 16 16 16 17 17 16 16 17 18 16 15 15 15 14 16 17 18 19 17 16 16 15 13 13 14 17 21
21 20 20 21 22 20 19 18 17 18 22 28 33 35 33 30 29 26 24 22 21 20 19 18 17 17 16 15 16 17 19 19 19 18 18 18 18 21 26 26 24 25 25 25 27 31 35 39 39 39 38 31 27 28 29 28 27 25 22 18 17 18 18 19 21 20 20 19 17 16 16 16 16 14 14 15 17 19 19 16 16 16 14 13 14 13 15 17
24 21 19 19 21 22 21 20 19 18 19 22 23 23 22 21 19 17 18 19 19 18 16 15 14 14 14 15 15 17 19 21 22 22 23 22 20 20 22 22 24 26 23 20 21 20 23 28 30 35 39 33 28 30 29 29 31 30 26 22 20 22 24 24 22 22 22 20 17 17 16 16 16 15 14 15 17 19 19 16 16 16 14 14 14 14 14 15
Wind_Speed
5 5 6 6 6 6 6 6 6 6 6 6 5 4 4 4 4 4 4 4 4 4 4 3 3 2 1 1 0 1 1 1 1 1 2 3 4 5 6 10 13 13 12 16 17 14 9 7 7 5 4 2 3 4 6 7 8 10 11 12 12 12 11 12 11 12 14 13 10 7 6 8 10 11 12 10 10 9 5 4 4 1 2 3 1 3 5 7
5 5 5 5 5 5 5 5 5 5 5 5 5 4 4 3 3 3 4 3 3 3 3 3 2 2 1 0 1 1 0 1 2 2 0 1 3 5 5 9 10 9 10 15 17 14 11 10 9 5 2 1 3 5 7 9 10 11 12 12 11 11 11 11 11 13 15 14 12 8 7 8 10 12 13 12 11 8 3 3 3 2 2 2 1 4 7 8
5 5 5 5 5 5 5 5 5 5 5 5 5 4 3 3 2 3 3 3 3 2 2 2 2 1 0 1 0 1 1 2 3 4 3 2 1 4 5 8 9 9 10 16 19 16 15 13 11 6 2 1 3 6 8 10 11 10 10 11 11 10 10 9 9 14 17 15 12 8 8 9 11 11 12 12 11 8 4 3 2 2 2 1 2 5 8 9
6 6 5 5 5 5 5 5 5 5 5 5 5 4 3 2 2 2 2 3 2 2 2 2 1 1 0 1 0 1 1 2 2 4 4 4 2 2 5 8 9 11 13 18 21 19 16 14 12 8 3 2 4 8 9 11 11 10 9 11 12 10 10 10 10 15 18 17 13 8 8 10 12 12 12 13 11 7 4 4 2 2 1 3 3 7 9 10
8 7 6 6 5 5 5 5 5 5 5 5 5 4 4 3 2 1 2 2 2 2 2 2 2 1 1 1 0 0 1 2 1 2 3 4 4 2 4 8 11 13 14 18 21 20 17 15 13 8 3 1 4 7 9 10 10 10 8 11 13 12 12 11 11 15 19 18 13 6 8 10 12 13 14 13 11 6 3 4 3 2 3 5 4 8 10 11
9 8 8 7 6 6 5 5 4 4 4 5 5 4 4 3 2 1 2 2 2 1 2 1 1 2 1 1 1 1 2 2 2 1 0 4 5 3 4 8 11 13 14 19 21 20 19 16 14 8 3 1 4 5 7 8 7 7 9 12 14 13 11 10 11 15 19 20 13 5 7 10 12 12 13 12 10 6 4 5 4 4 5 7 7 9 10 11
9 9 9 8 7 6 6 5 5 4 4 4 4 4 4 3 3 1 2 2 2 1 1 1 1 1 2 1 2 2 3 3 2 2 3 5 7 5 3 7 11 13 14 19 21 21 20 18 13 8 5 4 5 4 5 8 6 7 11 13 12 11 9 9 11 13 18 20 13 4 7 10 12 11 11 11 9 6 6 6 6 5 5 7 10 10 11 11
9 9 9 9 8 7 6 6 5 5 4 4 4 4 3 3 3 2 2 2 2 1 1 1 1 1 1 2 2 3 3 3 4 4 5 6 7 5 3 7 11 13 14 18 21 22 21 18 13 8 7 5 5 3 2 4 4 6 12 12 10 8 8 9 10 12 15 18 15 5 6 10 12 12 12 11 8 7 8 7 7 7 6 8 12 12 12 13
11 9 9 9 9 8 7 6 6 5 5 4 4 4 3 3 3 3 3 3 2 1 1 1 1 0 1 2 4 4 3 4 4 5 5 5 5 4 4 7 11 15 17 19 21 21 20 16 11 9 8 5 4 4 1 1 3 7 11 11 9 9 10 11 10 11 13 15 14 7 6 9 12 12 12 11 9 8 9 7 7 7 7 9 13 14 13 12
12 11 10 9 9 9 8 7 6 6 5 5 4 4 4 4 3 3 3 3 2 2 2 2 1 1 1 3 5 5 4 4 3 4 5 3 3 3 4 7 13 18 20 20 21 20 18 14 11 10 8 5 6 5 3 3 7 10 10 10 11 12 12 12 12 11 11 13 12 7 5 8 11 11 11 11 10 9 9 8 7 7 8 10 13 15 14 12
12 12 11 10 9 9 9 8 7 6 6 6 5 5 4 4 4 4 4 4 3 3 3 3 3 3 3 5 7 6 5 4 2 3 4 3 1 3 5 8 14 20 22 21 21 19 15 12 12 11 7 6 7 7 5 6 9 10 10 11 13 13 12 13 12 10 9 11 10 7 5 8 11 11 11 11 10 10 10 9 8 8 8 10 13 15 14 13
11 12 12 11 10 9 10 9 8 7 6 6 6 5 5 5 5 5 5 5 5 5 5 5 5 5 4 6 7 5 4 3 2 2 4 4 2 3 5 7 14 21 23 21 20 18 14 13 14 12 9 8 6 6 6 7 9 10 12 12 13 14 13 12 11 10 9 9 9 7 5 8 10 10 12 13 11 11 12 11 10 9 8 11 13 14 14 13
11 11 12 12 11 10 10 10 9 8 7 7 7 6 6 6 6 6 6 6 6 7 7 7 6 6 5 6 6 4 3 2 1 3 4 4 4 4 6 8 13 21 24 23 21 18 16 16 15 13 11 9 6 6 7 8 9 11 13 13 14 14 12 12 12 13 13 10 8 7 6 7 8 10 14 15 13 13 13 12 11 11 9 11 13 13 14 13
11 12 12 13 12 11 10 11 11 10 8 8 8 7 7 7 7 6 6 7 7 7 7 7 6 6 6 5 5 4 3 2 3 4 4 4 4 4 7 8 13 20 25 26 24 22 20 19 18 15 12 10 8 8 8 9 11 13 14 13 13 13 13 13 15 17 16 12 9 8 7 7 8 11 15 17 16 14 14 12 12 12 11 12 14 14 14 12
13 13 12 13 13 12 10 11 11 12 10 9 9 8 8 8 8 7 7 7 7 7 7 7 6 6 6 6 5 4 4 5 5 5 5 5 5 5 8 10 13 19 25 28 26 24 22 21 19 16 13 12 11 10 9 10 12 14 14 12 12 13 14 15 16 16 15 14 12 10 8 6 9 11 13 17 17 15 14 13 13 13 12 12 15 15 14 12
13 14 14 13 13 12 11 11 11 12 12 11 10 9 9 9 8 8 8 7 7 7 6 6 7 7 7 6 5 5 5 6 5 4 4 5 6 7 9 12 14 18 24 28 28 26 24 23 20 17 15 13 13 12 11 12 13 13 13 13 12 14 16 16 17 17 17 18 16 12 9 7 9 10 11 16 17 16 15 15 14 14 14 13 15 17 15 13
14 14 14 14 14 13 11 11 11 12 12 12 11 11 10 9 9 9 8 8 7 7 6 7 8 8 7 6 6 6 6 6 5 5 5 6 8 7 9 13 16 18 22 27 28 27 25 24 21 18 16 15 15 13 12 11 11 11 11 12 12 14 18 19 19 20 20 20 19 15 12 9 9 10 10 15 18 18 17 17 16 15 15 14 15 18 17 15
14 14 15 15 15 14 12 12 12 12 13 12 12 12 11 11 10 9 9 9 8 8 7 8 8 7 7 8 8 7 7 5 5 6 6 6 8 9 10 14 18 19 22 25 28 27 25 23 22 20 19 19 17 16 13 7 5 6 7 10 14 17 20 20 21 21 21 23 21 17 13 7 9 11 11 13 19 21 20 19 18 18 17 16 17 19 18 17
15 14 15 15 15 14 13 12 12 13 13 12 12 12 11 11 11 10 10 10 9 9 9 8 6 4 4 7 9 9 8 6 5 6 6 5 8 11 12 14 17 20 23 24 24 25 25 22 23 24 22 21 20 19 17 11 8 9 12 16 20 23 22 19 20 21 22 23 20 16 11 4 8 12 12 12 17 22 23 21 21 20 19 19 19 20 19 18
15 14 15 15 15 14 13 12 13 14 14 13 12 11 11 10 10 10 10 10 9 9 10 9 9 8 6 6 10 11 9 7 7 6 6 6 9 13 13 13 16 18 22 22 19 21 24 24 25 26 23 20 20 20 19 17 18 19 20 22 24 26 23 18 20 23 22 20 16 12 9 6 8 11 14 14 14 19 24 25 25 22 21 21 21 20 20 18
15 14 14 15 14 13 12 12 13 13 14 13 12 11 10 9 9 9 9 9 8 10 10 10 12 11 9 11 13 13 10 8 9 8 7 8 11 13 13 12 13 15 18 20 17 16 19 24 24 22 21 18 17 19 20 20 21 21 22 24 24 25 22 20 22 22 19 17 14 12 12 9 7 9 15 17 14 14 18 24 28 27 23 22 23 21 20 18
15 13 13 14 14 13 12 12 12 12 12 12 12 11 9 8 8 8 9 8 6 8 10 11 13 9 8 13 15 15 13 10 10 9 7 8 9 11 12 9 8 11 13 15 15 12 14 18 15 13 16 15 15 18 20 20 21 21 21 23 25 23 22 23 22 19 18 17 15 15 16 12 7 10 16 18 15 12 13 18 25 28 26 23 23 21 20 19
14 12 12 13 14 12 12 11 11 11 11 11 10 9 8 8 8 8 10 9 4 4 9 13 13 8 8 13 15 16 15 11 11 10 6 5 6 7 9 6 4 8 10 11 11 11 11 8 5 7 9 11 13 14 16 18 20 21 21 23 26 24 24 25 25 23 22 20 18 17 18 17 13 14 18 18 15 13 13 15 20 27 28 25 23 22 20 20
12 11 11 13 13 12 11 11 11 10 10 9 8 7 7 8 8 8 9 10 7 3 6 10 8 6 8 11 12 12 12 11 12 9 6 4 5 4 6 5 5 6 7 8 9 11 7 7 6 7 7 8 9 9 12 14 16 19 21 23 24 21 21 24 25 24 23 20 20 19 18 18 14 11 14 16 15 15 15 15 17 23 27 26 25 24 22 20
11 11 11 12 13 11 10 10 10 9 8 7 6 5 6 7 7 8 10 10 6 6 2 4 5 6 7 7 7 6 7 10 10 8 6 4 4 2 3 5 7 6 7 7 9 12 8 7 3 4 3 5 7 8 10 10 15 18 16 14 15 14 17 20 21 20 19 19 19 17 12 10 9 7 7 12 14 15 15 14 15 19 24 27 27 26 25 23
11 11 11 12 12 11 9 9 8 7 6 5 4 4 4 6 6 7 8 6 5 7 6 3 4 5 5 4 3 3 6 8 9 8 7 6 4 2 3 5 5 5 7 8 9 12 9 6 5 4 4 7 8 10 8 8 15 17 10 7 11 15 18 21 23 18 13 13 13 11 9 9 15 14 9 12 13 13 16 14 13 15 20 25 26 26 26 24
11 11 11 11 12 11 9 8 6 5 3 3 3 3 4 4 4 6 4 3 5 7 8 6 3 2 5 3 3 3 4 6 9 10 9 8 5 5 5 5 3 3 7 8 10 11 9 7 6 5 7 9 10 10 7 10 14 14 11 12 18 20 19 21 24 18 12 12 10 9 9 11 17 15 8 11 11 12 16 14 12 13 15 20 24 25 26 25
11 10 10 10 10 10 8 6 5 3 3 3 3 3 3 3 4 5 2 2 3 6 7 5 3 1 4 6 6 6 4 5 9 10 10 10 7 6 6 5 3 3 5 9 12 12 9 9 9 9 12 13 12 10 8 12 14 14 14 16 19 17 16 18 18 14 13 13 13 13 10 8 14 16 10 11 12 13 15 13 11 9 9 13 18 22 25 26
11 9 9 7 7 7 6 5 4 3 3 4 4 4 2 2 2 3 2 2 4 6 8 5 2 2 2 6 9 8 6 6 5 8 11 12 10 8 8 7 6 7 9 11 15 14 12 12 13 14 16 15 13 9 11 13 14 16 17 18 18 16 15 14 10 10 11 10 15 18 13 7 11 18 13 10 12 10 9 10 10 7 7 8 11 16 20 24
11 8 5 4 5 5 4 3 3 3 3 3 4 3 1 1 2 2 2 2 6 8 7 6 3 2 2 4 8 10 8 6 4 5 10 13 11 8 8 8 9 11 11 13 16 15 13 14 16 18 16 14 12 10 12 13 14 17 19 19 17 15 13 8 5 8 7 8 14 16 13 8 7 12 9 6 7 6 3 7 9 8 8 8 8 11 15 18
11 7 2 2 3 3 3 3 3 4 3 3 4 2 2 3 4 4 2 2 7 9 8 6 4 1 2 4 5 8 9 6 3 5 7 9 11 11 10 10 10 11 12 14 15 14 13 16 18 18 16 15 14 14 13 14 15 17 18 16 12 8 5 1 2 5 3 5 8 9 9 8 9 9 7 4 5 5 3 5 7 7 7 8 7 8 10 13
10 7 4 3 4 4 4 4 5 4 3 3 4 3 3 4 6 6 5 3 4 10 11 7 4 2 2 3 4 5 7 7 5 5 5 6 8 10 10 10 10 10 9 10 11 13 14 16 16 16 16 15 16 16 15 16 15 15 14 11 8 2 2 1 1 1 4 8 11 12 9 9 15 16 11 8 7 4 3 4 6 6 6 7 7 7 8 10
11 8 5 4 5 5 5 6 6 5 4 4 4 4 4 4 5 7 8 6 5 10 13 8 4 4 2 3 5 4 5 8 8 8 8 8 10 12 11 12 13 12 10 11 13 15 13 10 11 13 13 13 15 16 16 15 12 12 11 10 9 3 2 2 3 2 5 9 11 12 8 9 16 16 10 7 6 4 5 6 7 7 6 6 5 7 9 10
12 9 6 5 6 7 7 7 6 5 5 4 4 4 5 6 6 7 8 6 6 9 12 10 7 5 4 2 3 2 2 4 6 8 10 11 12 13 13 13 15 16 18 17 16 15 11 6 5 8 9 10 11 12 12 12 11 13 12 10 11 9 3 3 4 3 5 5 4 3 4 6 9 6 3 4 6 5 5 6 8 9 9 8 7 9 11 11
12 9 7 6 7 8 7 7 6 6 5 5 5 4 5 6 7 8 7 6 6 9 12 12 10 7 6 4 0 2 3 1 4 7 9 10 12 12 13 13 13 15 18 17 14 11 11 8 2 3 6 7 9 9 10 12 12 12 12 14 15 13 10 7 5 6 6 2 1 4 7 11 13 10 6 6 7 6 6 6 6 8 10 10 9 10 11 12
13 10 6 5 7 8 8 8 7 6 6 6 5 6 8 7 7 7 6 6 6 7 10 12 10 9 9 6 3 3 3 2 3 7 8 8 9 9 11 12 13 14 15 16 15 12 15 17 13 11 12 9 10 13 14 15 13 10 12 17 17 13 10 7 5 5 4 2 3 7 10 16 16 13 10 9 9 8 8 8 7 7 9 10 9 10 11 11
12 11 6 4 7 9 9 9 8 8 8 7 7 9 11 8 6 6 4 5 5 6 8 10 9 8 7 5 4 3 2 4 2 3 5 5 2 2 4 4 5 8 10 14 16 14 17 23 19 17 18 12 9 12 15 16 16 15 14 13 12 11 10 9 5 1 0 2 4 7 12 17 14 9 9 9 8 9 10 10 8 8 9 9 10 11 12 12
10 8 5 3 6 9 9 10 9 10 10 9 11 12 11 9 6 5 4 3 4 5 7 7 6 5 4 3 3 3 2 5 7 4 2 5 4 5 5 4 4 5 6 7 10 11 13 18 16 15 16 13 9 9 9 11 14 16 13 9 9 8 9 10 6 1 1 2 3 6 10 16 17 15 12 8 6 7 9 9 9 9 9 8 9 11 13 13
7 5 3 3 6 8 8 9 9 10 10 11 12 12 10 9 7 6 5 4 3 5 6 6 5 4 3 3 2 2 3 5 7 6 5 6 3 2 3 2 2 3 8 8 9 10 10 13 15 12 11 13 13 10 7 6 8 13 13 12 12 9 7 9 7 3 2 2 2 4 6 10 16 15 11 8 8 6 5 5 6 8 9 8 9 10 12 13
5 3 2 2 5 7 7 8 8 9 10 11 12 10 9 9 7 7 7 5 3 3 4 4 4 2 2 2 2 1 2 4 5 6 6 4 3 2 1 2 3 3 9 10 9 8 8 12 16 13 10 15 18 14 12 13 11 11 14 16 17 13 10 8 6 6 4 2 2 1 3 12 15 12 8 8 9 6 3 3 4 6 8 10 11 10 10 11
3 3 2 1 3 5 6 6 7 9 10 9 9 7 7 8 6 5 6 6 4 2 2 2 2 1 1 1 0 1 2 4 5 3 6 5 3 2 2 4 5 6 8 8 6 6 5 9 17 19 17 18 18 15 16 19 17 13 13 16 18 17 15 10 5 8 8 5 4 3 4 15 17 11 8 7 8 8 5 5 6 7 8 10 11 10 9 11
2 2 2 0 2 3 3 4 6 7 8 7 5 3 3 4 4 3 2 2 2 1 1 1 2 2 2 3 3 3 4 4 5 1 3 4 4 3 4 5 6 7 8 7 4 5 9 9 14 19 20 19 19 18 18 19 20 16 11 13 15 16 17 13 7 9 10 9 8 4 4 13 16 10 8 8 9 9 7 8 8 8 9 11 11 9 9 10
3 3 3 2 2 2 1 2 4 4 4 4 2 1 2 2 4 3 3 3 2 2 1 1 2 2 2 3 4 5 5 5 6 5 4 3 4 5 6 7 7 8 8 6 4 6 9 8 11 17 20 20 20 18 16 14 16 17 14 13 13 12 12 12 11 11 10 10 10 4 3 13 16 11 10 10 10 10 10 10 8 8 10 11 10 9 8 10
5 3 4 4 3 3 2 1 2 1 1 1 2 4 5 5 6 7 7 7 6 5 4 4 3 3 3 3 5 6 6 6 7 8 8 8 7 7 8 9 9 9 9 7 7 9 8 7 11 13 13 15 14 10 10 8 8 13 15 14 14 12 9 9 10 10 9 12 12 6 5 15 16 10 11 12 10 10 11 10 8 9 10 9 9 8 7 9
7 5 4 4 4 4 3 3 2 2 2 2 3 4 6 7 8 8 9 9 9 9 8 8 7 7 6 6 6 6 7 7 7 8 10 11 11 10 11 11 10 10 10 9 9 11 9 7 8 6 3 4 6 6 11 11 9 9 10 13 15 14 12 9 8 9 10 11 13 11 12 17 13 8 12 12 9 9 10 9 8 8 9 8 7 7 7 9
8 6 5 6 5 4 5 5 4 4 4 4 4 4 5 6 7 9 9 10 10 10 10 10 9 9 9 9 9 9 10 9 8 8 11 13 14 13 14 15 14 13 13 12 10 9 8 7 6 4 2 3 6 8 11 12 13 11 7 9 11 12 12 10 7 9 11 9 12 14 16 17 13 10 12 10 8 8 9 8 7 7 7 7 6 6 8 9
8 6 6 6 5 5 6 7 7 7 7 7 7 7 7 9 9 10 11 10 9 9 9 10 10 11 12 13 12 13 13 13 12 12 13 15 16 16 17 18 18 16 14 14 13 11 9 9 9 9 7 6 8 9 9 10 13 12 10 9 8 7 10 11 9 7 8 8 9 10 12 16 16 14 13 10 7 7 7 7 6 5 5 6 5 7 8 10
10 7 6 5 4 5 6 7 8 10 10 10 10 10 11 12 12 11 11 10 10 10 10 11 12 12 14 14 14 15 16 16 17 17 17 18 19 19 19 19 18 17 14 13 13 12 11 12 12 13 13 11 9 9 9 10 11 11 12 12 11 10 9 10 11 8 6 7 7 5 7 12 12 10 12 11 7 5 5 6 6 6 5 4 4 6 8 9
11 9 7 6 5 5 5 6 7 9 10 10 11 12 12 12 12 12 12 12 13 13 13 14 14 14 15 15 16 17 18 18 19 20 20 21 22 22 23 22 19 18 16 14 13 12 12 13 13 15 18 17 14 11 11 12 12 13 13 12 12 13 10 9 10 8 5 5 5 2 3 5 4 6 11 11 7 7 7 7 8 7 5 4 3 4 7 8
11 10 9 8 8 7 7 7 7 7 8 9 10 11 12 11 12 13 14 15 15 16 16 16 16 16 17 17 17 17 18 19 20 21 21 23 23 21 22 22 21 20 21 20 17 16 15 14 15 17 20 21 19 16 13 12 14 14 12 10 10 11 11 11 10 9 7 6 7 6 5 4 4 6 9 10 10 12 11 9 8 7 5 4 3 4 5 6
10 9 9 8 8 8 8 8 8 9 9 9 10 11 13 13 14 14 16 17 17 18 18 18 17 17 18 18 18 18 18 18 19 20 20 21 22 21 20 21 21 22 23 22 21 20 18 18 20 20 22 24 23 19 16 15 16 16 13 11 9 9 10 11 10 10 10 9 7 7 8 6 5 6 9 12 14 16 13 9 8 7 6 5 4 4 4 4
11 10 9 8 8 8 8 8 8 10 10 11 11 12 13 15 15 15 14 15 16 17 19 19 19 19 18 18 18 18 18 18 19 19 19 20 21 21 21 21 19 20 21 21 21 21 19 20 22 21 22 25 24 21 20 19 16 14 13 12 11 10 11 13 13 12 12 11 8 7 7 6 4 6 10 14 17 18 14 9 7 5 5 5 4 4 3 4
Wind_Direction
341 336 332 327 323 315 307 302 294 289 284 283 283 285 288 290 294 293 294 296 297 302 293 292 292 278 266 230 156 210 254 258 261 248 205 209 205 202 205 196 200 207 197 181 174 169 169 187 207 183 129 97 42 9 333 334 319 305 308 313 330 339 341 343 335 335 338 339 323 277 243 225 209 209 213 207 208 216 217 216 243 264 302 304 241 201 159 168
348 343 340 337 336 330 323 316 305 299 292 290 288 288 292 292 293 289 291 292 295 299 288 289 277 262 245 169 147 173 315 87 72 43 69 213 216 209 205 204 205 203 190 174 169 174 182 195 205 195 156 84 14 343 325 323 318 310 303 313 339 339 333 333 329 346 346 341 329 284 234 217 211 209 210 206 210 219 233 236 254 321 296 276 212 182 150 162
355 351 347 342 340 335 332 326 316 310 303 302 299 298 301 299 298 290 287 286 295 296 285 286 264 266 187 123 128 144 83 113 70 40 42 29 266 220 206 205 203 194 182 170 173 183 187 194 205 214 232 42 349 326 328 324 319 313 303 320 342 335 331 330 330 354 350 340 334 289 232 207 210 210 205 206 212 219 249 262 275 344 291 203 179 179 151 156
1 359 356 351 346 340 336 330 323 318 312 309 307 310 311 312 307 284 283 282 289 295 289 291 274 289 86 88 98 144 105 119 49 29 52 37 353 258 207 196 193 189 183 177 179 185 186 194 207 222 239 40 341 317 323 316 308 308 309 326 332 327 326 322 330 350 349 342 337 294 234 203 203 208 205 205 207 214 266 278 289 316 214 137 168 182 156 154
3 3 3 360 354 347 342 335 327 323 319 314 312 315 318 323 324 286 279 276 280 292 293 301 295 309 25 30 322 225 152 150 338 10 62 31 6 317 216 191 189 189 186 183 182 184 188 199 210 223 248 353 311 304 311 299 293 299 316 332 329 326 318 314 331 345 349 347 340 298 235 206 202 207 208 210 210 215 269 274 275 250 166 126 162 187 161 157
1 1 3 3 1 355 349 342 334 327 322 319 315 315 318 322 326 290 264 266 271 275 282 308 311 315 349 357 308 281 203 205 316 304 5 349 348 324 235 196 190 189 184 184 183 185 192 202 210 224 244 262 284 295 291 276 286 303 321 335 330 323 308 312 337 342 348 352 347 300 233 213 206 211 213 217 219 219 251 259 245 215 178 137 155 181 164 158
357 356 356 359 2 359 353 348 342 333 325 320 314 312 314 315 316 295 251 257 258 253 272 289 315 323 333 338 301 289 243 240 287 268 275 312 322 316 251 205 189 185 182 182 184 187 195 203 209 226 239 247 271 279 264 260 278 317 332 335 324 314 301 318 340 339 347 354 352 312 235 219 209 210 218 225 224 223 238 243 234 217 188 144 152 169 164 158
352 351 349 351 356 357 353 350 346 338 329 321 314 309 305 303 303 291 259 251 251 250 253 261 303 340 331 328 296 298 291 264 268 270 280 300 311 308 241 207 187 179 177 179 185 190 196 203 208 215 229 246 249 230 248 266 280 322 336 332 313 308 314 331 338 334 346 356 356 327 239 223 209 205 213 225 226 224 229 236 237 221 190 152 154 165 167 164
344 345 345 343 345 349 349 347 345 340 332 324 317 308 301 297 293 291 276 261 254 252 247 251 287 325 340 317 297 300 303 287 278 277 286 305 313 292 226 198 185 176 173 178 184 190 194 198 202 207 223 236 216 204 205 287 317 320 326 325 309 308 323 337 334 329 346 359 359 340 254 225 212 207 211 220 223 219 220 231 235 215 188 162 158 165 172 171
336 337 339 338 336 337 340 340 338 335 331 325 318 311 304 296 290 291 284 275 266 251 250 255 274 298 317 297 293 299 301 300 298 285 289 310 318 271 218 188 184 176 174 178 180 183 185 187 196 205 219 216 202 211 221 291 320 316 317 321 314 309 317 334 334 329 345 358 1 347 278 231 214 213 216 218 217 216 215 224 229 206 184 171 164 167 175 174
329 329 330 331 329 327 328 329 329 327 325 321 317 313 305 298 294 289 285 282 277 267 263 267 277 290 293 284 289 302 304 305 307 279 272 274 265 236 215 186 182 179 176 177 176 176 178 187 199 200 209 211 206 215 232 288 313 314 310 313 310 307 315 330 333 329 341 351 356 350 297 246 228 219 221 223 217 218 217 221 230 211 187 177 170 172 177 175
322 322 321 323 323 320 318 319 319 318 316 315 312 309 303 298 293 288 286 282 280 279 275 277 283 284 277 271 280 296 303 310 316 253 251 260 247 220 216 190 184 183 178 174 174 176 180 197 207 201 207 215 212 223 242 276 300 306 305 307 308 307 316 330 335 338 343 341 343 340 298 266 254 230 225 230 224 223 221 222 226 215 193 181 178 178 179 179
314 314 314 315 317 316 312 310 310 310 309 307 306 304 300 296 291 288 284 280 279 279 279 284 287 282 270 262 273 290 298 308 273 212 231 257 255 229 221 199 188 185 178 175 177 181 192 207 212 207 211 218 220 234 254 277 292 301 302 304 307 310 321 333 335 337 337 329 328 321 301 300 280 238 231 236 230 226 223 221 218 210 199 188 184 184 183 183
306 306 306 308 310 312 310 306 304 303 302 300 298 297 296 292 289 286 282 281 279 278 284 289 290 284 273 264 269 278 268 230 194 202 215 245 257 224 210 195 189 186 180 178 181 189 201 212 216 213 215 222 225 238 260 282 291 295 298 300 308 317 325 331 330 333 333 322 313 304 301 313 285 242 236 241 237 230 224 220 212 206 205 196 190 190 189 183
302 300 300 301 303 306 307 304 300 298 297 295 292 290 290 289 287 286 284 282 280 281 286 287 287 282 274 272 271 261 233 210 200 204 211 231 238 209 191 179 183 187 182 183 188 195 206 216 221 221 220 224 231 243 263 281 287 289 294 298 307 316 322 328 330 334 337 328 315 299 292 298 287 262 245 245 245 237 225 216 209 203 202 199 194 195 194 182
300 297 296 295 296 299 301 300 297 295 294 292 290 287 286 286 286 286 285 283 283 284 282 281 281 276 272 269 262 245 217 202 195 192 200 223 228 210 189 175 179 189 187 189 194 201 211 218 225 229 225 227 234 243 262 274 275 279 288 297 312 319 322 328 331 335 337 331 322 303 285 282 288 283 257 247 249 244 229 215 208 204 200 196 193 195 196 188
299 296 293 291 291 292 294 293 291 291 292 291 290 288 286 285 285 286 286 284 285 284 283 280 276 275 273 261 248 235 209 195 190 180 181 208 220 206 188 175 176 187 191 195 201 207 217 222 227 235 231 229 235 243 258 270 273 281 289 298 314 319 319 322 325 330 330 326 323 307 288 272 269 285 272 248 244 244 238 224 212 207 206 199 193 194 194 192
299 295 292 289 288 289 291 290 287 286 287 289 289 289 289 288 288 288 284 283 284 283 281 277 273 275 260 240 235 222 199 197 212 201 186 197 205 195 186 178 178 186 192 199 207 212 220 226 229 236 235 229 232 237 240 253 294 296 291 297 308 312 314 318 321 325 324 321 318 303 292 271 248 270 275 251 241 240 242 237 222 212 211 205 198 196 194 193
299 296 292 289 287 289 290 288 285 282 282 285 287 290 293 294 294 293 288 289 289 281 276 268 259 259 235 224 230 220 201 200 209 204 199 196 192 187 185 185 184 187 193 201 211 216 223 229 230 233 232 227 230 234 234 244 272 277 282 292 302 307 312 320 323 322 321 317 311 295 287 263 235 256 268 258 243 238 238 239 232 220 214 209 204 202 200 196
299 297 293 289 287 289 288 286 283 281 280 282 287 291 296 299 300 300 295 291 287 275 268 261 250 237 214 216 229 223 210 202 197 196 204 198 188 188 191 195 194 195 198 201 211 220 225 232 233 229 228 231 236 238 240 249 261 270 279 287 294 298 307 325 323 317 319 313 303 288 272 248 237 249 259 259 249 241 238 237 236 230 222 217 210 206 205 200
300 299 295 290 288 287 284 282 279 280 283 285 289 291 296 303 306 304 296 289 281 270 264 261 258 241 218 227 232 226 217 203 198 202 205 196 191 196 202 205 206 205 200 198 207 218 224 230 231 229 232 241 241 238 243 250 258 267 275 283 291 296 306 320 314 312 319 309 292 278 270 266 253 248 254 256 258 257 248 240 237 235 233 226 217 208 207 206
300 301 298 291 287 284 280 277 276 279 284 287 289 292 300 308 306 302 294 285 270 265 261 255 258 246 219 231 234 232 230 210 203 211 208 195 188 197 209 212 207 198 194 198 206 216 226 231 231 231 238 240 237 239 244 251 258 265 272 280 289 298 306 311 311 313 317 310 291 272 272 276 261 247 253 257 258 261 257 246 238 235 236 231 222 213 208 211
300 301 297 289 285 283 280 278 277 278 281 284 287 294 304 307 308 306 296 292 291 266 249 247 257 248 218 227 229 237 239 217 209 216 208 188 168 189 209 212 197 187 196 205 211 225 231 224 202 201 214 222 232 240 247 255 260 265 272 277 284 295 301 302 306 308 308 305 290 272 274 283 276 260 258 257 255 253 252 247 235 232 234 232 228 222 214 214
300 298 290 284 285 286 283 280 278 277 278 283 287 294 301 306 312 314 309 313 341 1 241 241 255 235 218 231 234 241 239 217 214 216 210 186 156 182 200 200 211 206 213 214 222 233 202 133 136 164 177 213 229 234 247 260 265 268 273 275 282 297 305 305 306 304 301 295 282 273 281 292 289 275 261 249 246 250 249 247 237 230 230 229 228 225 221 220
300 292 282 280 285 289 285 279 277 275 276 281 283 284 293 303 310 321 327 330 2 28 347 222 212 203 215 241 241 232 216 208 211 209 204 171 143 163 169 187 220 230 229 218 231 237 191 145 188 187 189 245 247 245 253 269 279 281 279 277 290 311 319 313 307 299 292 287 278 268 275 295 293 289 269 246 243 251 250 249 245 234 230 228 226 225 224 224
303 289 279 276 281 287 284 278 275 273 273 273 264 262 280 291 309 331 339 356 42 45 46 96 166 190 212 243 234 193 189 193 202 205 199 175 163 192 192 214 240 233 221 223 245 244 209 194 240 250 274 283 270 257 262 295 299 292 286 292 305 310 316 315 310 299 282 280 280 256 236 269 290 298 284 255 248 249 249 245 245 239 232 231 229 227 227 225
309 292 279 272 275 281 279 274 271 267 258 244 234 235 261 279 316 336 346 33 48 49 52 58 71 150 198 200 121 148 176 183 199 203 190 185 198 206 207 225 234 206 213 230 249 241 215 216 247 272 288 285 262 249 273 315 306 293 294 305 303 303 307 308 307 299 270 265 277 258 235 260 288 299 284 259 249 241 245 240 238 240 233 231 231 229 229 227
319 301 284 271 267 271 271 268 265 248 214 209 207 212 253 293 330 343 13 67 46 41 28 13 16 43 205 182 134 140 142 155 193 194 178 188 213 215 211 214 201 214 235 246 250 242 237 251 261 274 282 270 247 246 291 307 298 298 311 311 304 304 300 296 300 287 260 263 272 263 249 249 277 289 291 276 260 248 249 240 232 240 234 228 228 227 228 229
327 310 291 270 255 257 259 256 248 223 198 206 203 202 250 323 345 9 72 82 47 30 13 4 359 343 250 182 154 151 133 119 166 186 181 193 209 215 220 231 244 254 259 263 260 253 253 261 266 273 273 256 236 254 288 290 295 306 314 307 299 300 297 295 294 263 243 257 272 268 259 244 277 288 289 277 271 273 265 240 227 229 224 219 220 221 224 227
338 325 304 257 229 234 239 233 215 194 188 197 196 201 230 11 20 40 88 59 29 25 22 24 10 336 278 208 176 169 161 130 119 168 187 197 207 218 231 238 249 256 261 266 266 264 258 259 265 267 262 251 247 263 274 282 294 301 303 296 288 293 299 298 259 237 230 258 276 282 276 254 273 295 290 273 292 318 282 224 218 213 205 201 204 211 216 222
354 355 358 179 182 188 197 188 172 172 181 187 184 182 132 88 59 46 66 49 25 26 31 28 19 77 216 237 200 185 188 177 145 162 188 203 209 221 232 235 242 251 261 268 271 275 269 265 270 265 255 257 265 264 265 279 289 291 293 282 268 281 304 322 205 210 210 271 286 306 296 244 236 279 302 296 305 329 307 235 224 214 195 186 189 198 207 215
13 26 57 116 138 145 155 154 152 158 166 174 168 155 138 106 70 47 42 51 25 17 21 26 39 98 173 230 215 207 210 215 215 201 215 238 238 241 242 242 244 248 266 275 280 290 281 271 270 263 255 255 260 262 267 278 282 283 280 252 226 266 344 252 261 206 233 262 279 293 290 244 248 273 294 286 276 284 278 243 232 219 186 183 189 195 204 208
25 38 59 92 119 130 137 139 142 144 145 150 147 143 141 116 72 45 36 36 29 21 21 30 66 97 128 213 221 226 231 236 238 231 238 257 268 269 264 260 256 255 271 286 294 302 299 280 263 256 255 251 254 263 269 276 280 282 273 234 206 177 53 289 272 306 274 271 287 288 270 252 265 281 290 258 232 233 234 212 212 208 185 180 191 202 213 212
29 38 57 86 113 124 132 139 138 139 139 136 141 144 129 103 65 36 27 24 42 48 41 46 71 94 113 160 230 291 304 248 235 238 245 256 269 276 275 271 264 259 266 277 289 297 296 290 258 248 254 251 254 263 270 278 284 283 277 247 225 215 208 256 233 227 267 282 317 276 212 248 269 286 301 225 214 240 246 211 200 200 192 188 195 207 215 218
29 35 53 87 114 125 132 138 136 139 140 133 138 130 102 85 52 24 15 12 38 61 59 63 73 83 99 114 218 345 355 286 228 237 247 257 270 281 288 289 283 273 267 268 281 294 289 287 281 266 273 263 264 272 275 277 274 271 258 237 237 242 244 253 242 237 250 272 286 215 236 271 275 277 276 233 231 249 251 239 217 201 201 201 204 213 217 219
23 30 44 86 117 127 131 133 135 139 135 131 132 105 81 73 48 24 18 17 27 51 66 79 84 84 92 96 96 82 27 351 238 236 242 249 263 281 295 299 294 284 273 270 278 288 290 288 286 289 292 282 272 274 273 270 263 254 247 240 245 254 252 248 248 246 246 257 255 242 262 280 283 287 274 245 247 252 246 249 238 217 216 216 222 227 226 225
13 21 36 91 123 131 135 134 135 138 130 125 125 101 82 75 55 33 32 32 30 43 64 75 72 70 81 84 90 99 36 29 47 257 240 222 238 343 339 328 314 296 281 271 271 274 282 286 281 282 293 297 283 276 267 260 252 244 249 253 250 247 243 240 238 237 212 265 263 253 266 278 280 280 271 260 259 252 245 248 245 236 230 226 233 236 235 232
7 18 38 107 133 138 142 143 142 138 133 128 121 103 85 81 67 42 48 58 58 72 77 75 65 57 68 72 75 71 34 50 49 29 158 157 114 68 71 82 68 6 332 283 275 279 279 282 278 277 289 293 289 292 276 249 238 234 237 249 250 241 232 226 218 212 253 258 286 271 269 275 273 267 268 271 266 249 243 248 254 251 244 239 240 241 240 233
14 29 58 118 141 144 145 150 147 138 139 134 119 104 91 91 78 50 51 62 86 98 90 85 84 79 81 83 70 29 24 47 47 57 117 149 153 97 73 89 119 14 354 338 317 300 271 269 276 271 275 280 281 300 319 293 247 231 228 238 248 249 236 223 214 215 214 196 268 290 283 278 282 287 281 256 248 249 242 252 267 261 251 244 243 246 243 232
27 43 75 105 138 146 144 148 145 140 143 132 115 110 111 107 89 59 53 53 66 100 91 96 111 115 109 91 67 349 6 20 30 73 112 141 182 198 249 281 240 308 352 356 346 319 263 250 261 263 266 272 274 284 308 319 303 253 235 237 241 245 247 246 246 248 241 198 194 178 282 281 294 312 299 248 235 238 236 238 252 255 252 247 251 256 241 224
31 40 68 106 143 139 136 143 139 138 139 126 114 121 129 127 112 77 60 48 43 67 89 114 157 179 214 231 288 284 314 337 347 59 116 145 174 208 303 314 292 311 344 357 7 358 321 262 257 268 275 268 268 279 291 302 307 285 256 249 246 247 252 256 266 261 248 234 225 176 255 285 299 313 295 259 230 223 225 227 234 245 251 253 260 260 232 212
5 1 13 109 168 143 142 156 140 134 135 124 116 121 125 148 162 133 94 43 25 58 99 199 214 195 221 244 264 281 288 305 314 333 133 155 187 239 301 328 320 317 330 339 350 348 336 301 267 275 285 277 276 288 290 293 298 286 262 253 249 248 253 252 249 263 256 242 247 234 249 289 304 309 289 266 237 227 231 235 235 236 247 256 261 253 230 213
345 317 318 312 201 191 243 186 146 134 138 129 117 322 319 252 238 226 220 248 271 273 276 254 246 257 267 261 271 281 279 279 280 264 232 217 224 253 288 311 320 318 318 316 314 329 335 322 294 296 299 289 280 285 290 292 289 276 256 245 242 242 254 257 253 263 262 243 242 227 248 284 297 299 279 264 250 249 254 251 239 233 247 258 256 246 233 222
350 322 303 304 261 239 289 286 188 197 212 186 257 290 292 287 276 266 262 264 266 277 295 300 301 303 290 282 287 289 282 271 265 259 250 247 257 276 287 294 305 316 324 325 328 335 337 324 316 319 313 297 287 294 305 297 285 279 265 248 243 241 247 259 256 249 247 250 246 216 244 281 296 294 266 258 255 259 262 257 241 234 246 252 250 245 230 219
344 335 309 304 290 262 278 286 257 269 271 242 247 265 279 291 290 282 280 278 277 283 289 295 303 307 306 304 298 294 289 275 259 259 261 262 270 281 284 286 291 301 316 325 330 333 326 310 320 349 21 310 295 323 328 315 304 294 266 240 235 236 241 255 246 221 223 246 247 234 252 278 293 280 255 254 256 259 264 257 233 226 239 243 242 240 222 210
347 339 324 315 305 284 282 289 287 289 292 288 279 267 278 299 302 298 293 285 281 280 278 280 286 289 290 286 275 270 274 276 268 262 264 266 270 275 280 284 286 287 296 302 309 318 309 295 302 317 353 312 305 329 337 321 307 297 268 236 227 222 227 236 223 208 212 225 239 248 262 276 284 272 257 259 261 259 264 257 232 225 243 245 231 221 210 202
1 344 333 326 314 303 301 299 296 296 298 303 299 290 296 305 306 303 298 289 282 280 282 281 276 273 275 275 274 271 270 274 276 275 275 274 274 276 279 282 285 285 285 288 291 292 286 281 282 285 288 292 305 324 337 331 315 295 267 254 252 239 226 220 210 204 205 211 234 254 265 271 278 274 265 268 269 257 255 247 229 230 247 246 231 213 200 195
3 353 346 338 323 312 306 300 300 299 299 302 303 300 303 305 305 303 299 294 288 287 292 293 288 285 285 285 287 284 279 279 279 279 281 281 280 280 277 277 282 281 279 282 285 285 285 284 281 278 276 272 280 300 310 319 312 281 254 248 257 268 260 235 225 218 207 213 234 256 254 256 269 271 263 269 273 256 250 234 217 223 230 226 226 217 204 196
360 358 351 341 333 323 309 299 298 295 294 296 299 300 300 302 306 307 304 301 297 293 296 299 298 298 297 296 296 293 289 286 283 281 282 283 285 285 281 279 280 280 279 279 282 290 295 291 288 286 278 267 264 276 291 305 299 272 250 242 247 257 263 253 234 220 215 217 218 232 247 244 266 271 260 260 248 223 224 217 208 215 220 201 196 211 210 200
357 355 347 340 338 333 326 318 310 301 294 293 295 297 298 300 304 305 302 301 300 298 298 300 301 302 301 301 301 298 295 292 290 288 288 287 288 289 288 285 283 282 284 284 286 290 293 291 293 299 290 272 262 264 272 291 301 287 261 243 242 244 249 251 235 212 206 206 204 216 240 264 300 276 247 239 226 214 210 205 201 209 212 194 178 193 203 198
357 352 344 338 332 328 324 319 314 307 298 294 291 289 291 291 292 295 298 300 302 302 301 301 302 302 302 302 301 300 297 294 292 291 290 289 288 288 289 287 287 288 288 289 290 287 287 287 287 296 297 282 269 267 269 278 292 292 279 258 238 226 233 238 227 204 189 184 193 213 228 254 288 265 230 218 216 215 209 198 198 208 209 197 186 181 185 186
355 350 345 337 328 323 319 313 310 306 300 296 292 289 291 293 292 294 298 299 300 300 301 302 302 301 301 298 296 296 294 291 290 289 287 285 284 284 284 285 289 291 289 289 289 285 285 284 282 287 289 282 275 275 278 287 297 295 285 266 239 224 223 218 212 203 190 187 194 202 214 234 257 250 229 212 208 212 208 190 184 207 215 203 191 176 162 157